Time,TemperatureF,DewpointF,PressureIn,WindDirection,WindDirectionDegrees,WindSpeedMPH,WindSpeedGustMPH,Humidity,HourlyPrecipIn,Conditions,Clouds,dailyrainin,SolarRadiationWatts/m^2,SoftwareType,DateUTC
2013-01-13 00:01:00,13.0,5.0,-100.00,WNW,294,4.0,9.0,71,0.00,,,0.00,0.000000,,2013-01-13 06:01:00,
2013-01-13 00:33:00,13.0,5.0,-100.00,WNW,294,4.0,9.0,71,0.00,,,0.00,0.000000,,2013-01-13 06:33:00,
2013-01-13 00:42:00,13.0,5.0,-100.00,WNW,294,4.0,9.0,71,0.00,,,0.00,0.000000,,2013-01-13 06:42:00,
2013-01-13 00:52:00,13.0,5.0,-100.00,WNW,294,4.0,9.0,71,0.00,,,0.00,0.000000,,2013-01-13 06:52:00,
2013-01-13 01:01:00,13.0,5.0,-100.00,NW,310,4.0,9.0,69,0.00,,,0.00,0.000000,,2013-01-13 07:01:00,
2013-01-13 01:33:00,13.0,5.0,-100.00,NW,310,4.0,9.0,69,0.00,,,0.00,0.000000,,2013-01-13 07:33:00,
2013-01-13 01:42:00,13.0,5.0,-100.00,NW,310,4.0,9.0,69,0.00,,,0.00,0.000000,,2013-01-13 07:42:00,
2013-01-13 01:52:00,13.0,5.0,-100.00,NW,310,4.0,9.0,69,0.00,,,0.00,0.000000,,2013-01-13 07:52:00,
2013-01-13 02:01:00,12.0,4.0,-100.00,WNW,291,4.0,9.0,71,0.00,,,0.00,0.000000,,2013-01-13 08:01:00,
2013-01-13 02:32:00,12.0,4.0,-100.00,WNW,291,4.0,9.0,71,0.00,,,0.00,0.000000,,2013-01-13 08:32:00,
2013-01-13 02:42:00,12.0,4.0,-100.00,WNW,291,4.0,9.0,71,0.00,,,0.00,0.000000,,2013-01-13 08:42:00,
2013-01-13 02:53:00,12.0,4.0,-100.00,WNW,291,4.0,9.0,71,0.00,,,0.00,0.000000,,2013-01-13 08:53:00,
2013-01-13 03:01:00,12.0,5.0,-100.00,WNW,297,5.0,10.0,72,0.00,,,0.00,0.000000,,2013-01-13 09:01:00,
2013-01-13 03:22:00,12.0,5.0,-100.00,WNW,297,5.0,10.0,72,0.00,,,0.00,0.000000,,2013-01-13 09:22:00,
2013-01-13 03:32:00,12.0,5.0,-100.00,WNW,297,5.0,10.0,72,0.00,,,0.00,0.000000,,2013-01-13 09:32:00,
2013-01-13 03:42:00,12.0,5.0,-100.00,WNW,297,5.0,10.0,72,0.00,,,0.00,0.000000,,2013-01-13 09:42:00,
2013-01-13 03:52:00,12.0,5.0,-100.00,WNW,297,5.0,10.0,72,0.00,,,0.00,0.000000,,2013-01-13 09:52:00,
2013-01-13 04:01:00,11.0,3.0,-100.00,WNW,302,5.0,11.0,71,0.00,,,0.00,0.000000,,2013-01-13 10:01:00,
2013-01-13 04:32:00,11.0,3.0,-100.00,WNW,302,5.0,11.0,71,0.00,,,0.00,0.000000,,2013-01-13 10:32:00,
2013-01-13 04:42:00,11.0,3.0,-100.00,WNW,302,5.0,11.0,71,0.00,,,0.00,0.000000,,2013-01-13 10:42:00,
2013-01-13 04:52:00,11.0,3.0,-100.00,WNW,302,5.0,11.0,71,0.00,,,0.00,0.000000,,2013-01-13 10:52:00,
2013-01-13 05:01:00,10.0,3.0,-100.00,WNW,290,4.0,10.0,71,0.00,,,0.00,0.000000,,2013-01-13 11:01:00,
2013-01-13 05:33:00,10.0,3.0,-100.00,WNW,290,4.0,10.0,71,0.00,,,0.00,0.000000,,2013-01-13 11:33:00,
2013-01-13 05:42:00,10.0,3.0,-100.00,WNW,290,4.0,10.0,71,0.00,,,0.00,0.000000,,2013-01-13 11:42:00,
2013-01-13 05:53:00,10.0,3.0,-100.00,WNW,290,4.0,10.0,71,0.00,,,0.00,0.000000,,2013-01-13 11:53:00,
2013-01-13 06:01:00,10.0,2.0,-100.00,WNW,289,5.0,8.0,70,0.00,,,0.00,0.000000,,2013-01-13 12:01:00,
2013-01-13 06:33:00,10.0,2.0,-100.00,WNW,289,5.0,8.0,70,0.00,,,0.00,0.000000,,2013-01-13 12:33:00,
2013-01-13 06:42:00,10.0,2.0,-100.00,WNW,289,5.0,8.0,70,0.00,,,0.00,0.000000,,2013-01-13 12:42:00,
2013-01-13 06:53:00,10.0,2.0,-100.00,WNW,289,5.0,8.0,70,0.00,,,0.00,0.000000,,2013-01-13 12:53:00,
2013-01-13 07:01:00,9.0,1.0,-100.00,West,273,4.0,7.0,69,0.00,,,0.00,0.000000,,2013-01-13 13:01:00,
2013-01-13 07:22:00,9.0,1.0,-100.00,West,273,4.0,7.0,69,0.00,,,0.00,0.000000,,2013-01-13 13:22:00,
2013-01-13 07:33:00,9.0,1.0,-100.00,West,273,4.0,7.0,69,0.00,,,0.00,0.000000,,2013-01-13 13:33:00,
2013-01-13 07:43:00,9.0,1.0,-100.00,West,273,4.0,7.0,69,0.00,,,0.00,0.000000,,2013-01-13 13:43:00,
2013-01-13 07:53:00,9.0,1.0,-100.00,West,273,4.0,7.0,69,0.00,,,0.00,0.000000,,2013-01-13 13:53:00,
2013-01-13 08:01:00,9.0,2.0,-100.00,West,278,5.0,10.0,71,0.00,,,0.00,2.000000,,2013-01-13 14:01:00,
2013-01-13 08:33:00,9.0,2.0,-100.00,West,278,5.0,10.0,71,0.00,,,0.00,2.000000,,2013-01-13 14:33:00,
2013-01-13 08:43:00,9.0,2.0,-100.00,West,278,5.0,10.0,71,0.00,,,0.00,2.000000,,2013-01-13 14:43:00,
2013-01-13 08:53:00,9.0,2.0,-100.00,West,278,5.0,10.0,71,0.00,,,0.00,2.000000,,2013-01-13 14:53:00,
2013-01-13 09:01:00,10.0,2.0,-100.00,WNW,286,6.0,10.0,68,0.00,,,0.00,66.000000,,2013-01-13 15:01:00,
2013-01-13 09:23:00,10.0,2.0,-100.00,WNW,286,6.0,10.0,68,0.00,,,0.00,66.000000,,2013-01-13 15:23:00,
2013-01-13 09:33:00,10.0,2.0,-100.00,WNW,286,6.0,10.0,68,0.00,,,0.00,66.000000,,2013-01-13 15:33:00,
2013-01-13 09:43:00,10.0,2.0,-100.00,WNW,286,6.0,10.0,68,0.00,,,0.00,66.000000,,2013-01-13 15:43:00,
2013-01-13 09:53:00,10.0,2.0,-100.00,WNW,286,6.0,10.0,68,0.00,,,0.00,66.000000,,2013-01-13 15:53:00,
2013-01-13 10:01:00,12.0,2.0,-100.00,West,279,5.0,10.0,63,0.00,,,0.00,208.000000,,2013-01-13 16:01:00,
2013-01-13 10:33:00,12.0,2.0,-100.00,West,279,5.0,10.0,63,0.00,,,0.00,208.000000,,2013-01-13 16:33:00,
2013-01-13 10:43:00,12.0,2.0,-100.00,West,279,5.0,10.0,63,0.00,,,0.00,208.000000,,2013-01-13 16:43:00,
2013-01-13 10:53:00,12.0,2.0,-100.00,West,279,5.0,10.0,63,0.00,,,0.00,208.000000,,2013-01-13 16:53:00,
2013-01-13 11:01:00,12.0,0.0,-100.00,WNW,294,6.0,11.0,57,0.00,,,0.00,318.000000,,2013-01-13 17:01:00,
2013-01-13 11:33:00,12.0,0.0,-100.00,WNW,294,6.0,11.0,57,0.00,,,0.00,318.000000,,2013-01-13 17:33:00,
2013-01-13 11:43:00,12.0,0.0,-100.00,WNW,294,6.0,11.0,57,0.00,,,0.00,318.000000,,2013-01-13 17:43:00,
2013-01-13 11:53:00,12.0,0.0,-100.00,WNW,294,6.0,11.0,57,0.00,,,0.00,318.000000,,2013-01-13 17:53:00,
2013-01-13 12:01:00,16.0,2.0,-100.00,NNW,328,6.0,11.0,52,0.00,,,0.00,472.000000,,2013-01-13 18:01:00,
2013-01-13 12:33:00,16.0,2.0,-100.00,NNW,328,6.0,11.0,52,0.00,,,0.00,472.000000,,2013-01-13 18:33:00,
2013-01-13 12:43:00,16.0,2.0,-100.00,NNW,328,6.0,11.0,52,0.00,,,0.00,472.000000,,2013-01-13 18:43:00,
2013-01-13 12:53:00,16.0,2.0,-100.00,NNW,328,6.0,11.0,52,0.00,,,0.00,472.000000,,2013-01-13 18:53:00,
2013-01-13 13:01:00,12.0,0.0,-100.00,NW,310,6.0,11.0,59,0.00,,,0.00,351.000000,,2013-01-13 19:01:00,
2013-01-13 13:33:00,12.0,0.0,-100.00,NW,310,6.0,11.0,59,0.00,,,0.00,351.000000,,2013-01-13 19:33:00,
2013-01-13 13:43:00,12.0,0.0,-100.00,NW,310,6.0,11.0,59,0.00,,,0.00,351.000000,,2013-01-13 19:43:00,
2013-01-13 13:53:00,12.0,0.0,-100.00,NW,310,6.0,11.0,59,0.00,,,0.00,351.000000,,2013-01-13 19:53:00,
2013-01-13 14:01:00,12.0,1.0,-100.00,NW,304,5.0,9.0,60,0.00,,,0.00,145.000000,,2013-01-13 20:01:00,
2013-01-13 14:33:00,12.0,1.0,-100.00,NW,304,5.0,9.0,60,0.00,,,0.00,145.000000,,2013-01-13 20:33:00,
2013-01-13 14:43:00,12.0,1.0,-100.00,NW,304,5.0,9.0,60,0.00,,,0.00,145.000000,,2013-01-13 20:43:00,
2013-01-13 14:53:00,12.0,1.0,-100.00,NW,304,5.0,9.0,60,0.00,,,0.00,145.000000,,2013-01-13 20:53:00,
2013-01-13 15:01:00,11.0,1.0,-100.00,WNW,302,6.0,9.0,63,0.00,,,0.00,71.000000,,2013-01-13 21:01:00,
2013-01-13 15:33:00,11.0,1.0,-100.00,WNW,302,6.0,9.0,63,0.00,,,0.00,71.000000,,2013-01-13 21:33:00,
2013-01-13 15:43:00,11.0,1.0,-100.00,WNW,302,6.0,9.0,63,0.00,,,0.00,71.000000,,2013-01-13 21:43:00,
2013-01-13 15:53:00,11.0,1.0,-100.00,WNW,302,6.0,9.0,63,0.00,,,0.00,71.000000,,2013-01-13 21:53:00,
2013-01-13 16:01:00,10.0,2.0,-100.00,NW,308,7.0,10.0,69,0.00,,,0.00,33.000000,,2013-01-13 22:01:00,
2013-01-13 16:23:00,10.0,2.0,-100.00,NW,308,7.0,10.0,69,0.00,,,0.00,33.000000,,2013-01-13 22:23:00,
2013-01-13 16:33:00,10.0,2.0,-100.00,NW,308,7.0,10.0,69,0.00,,,0.00,33.000000,,2013-01-13 22:33:00,
2013-01-13 16:43:00,10.0,2.0,-100.00,NW,308,7.0,10.0,69,0.00,,,0.00,33.000000,,2013-01-13 22:43:00,
2013-01-13 16:52:00,10.0,2.0,-100.00,NW,308,7.0,10.0,69,0.00,,,0.00,33.000000,,2013-01-13 22:52:00,
2013-01-13 17:01:00,9.0,2.0,-100.00,WNW,297,7.0,11.0,72,0.00,,,0.00,8.000000,,2013-01-13 23:01:00,
2013-01-13 17:33:00,9.0,2.0,-100.00,WNW,297,7.0,11.0,72,0.00,,,0.00,8.000000,,2013-01-13 23:33:00,
2013-01-13 17:43:00,9.0,2.0,-100.00,WNW,297,7.0,11.0,72,0.00,,,0.00,8.000000,,2013-01-13 23:43:00,
2013-01-13 17:53:00,9.0,2.0,-100.00,WNW,297,7.0,11.0,72,0.00,,,0.00,8.000000,,2013-01-13 23:53:00,
2013-01-13 18:01:00,8.0,2.0,-100.00,West,280,5.0,11.0,75,0.00,,,0.00,0.000000,,2013-01-14 00:01:00,
2013-01-13 18:33:00,8.0,2.0,-100.00,West,280,5.0,11.0,75,0.00,,,0.00,0.000000,,2013-01-14 00:33:00,
2013-01-13 18:43:00,8.0,2.0,-100.00,West,280,5.0,11.0,75,0.00,,,0.00,0.000000,,2013-01-14 00:43:00,
2013-01-13 18:53:00,8.0,2.0,-100.00,West,280,5.0,11.0,75,0.00,,,0.00,0.000000,,2013-01-14 00:53:00,
2013-01-13 19:01:00,7.0,1.0,-100.00,West,281,5.0,11.0,76,0.00,,,0.00,0.000000,,2013-01-14 01:01:00,
2013-01-13 19:33:00,7.0,1.0,-100.00,West,281,5.0,11.0,76,0.00,,,0.00,0.000000,,2013-01-14 01:33:00,
2013-01-13 19:42:00,7.0,1.0,-100.00,West,281,5.0,11.0,76,0.00,,,0.00,0.000000,,2013-01-14 01:42:00,
2013-01-13 19:53:00,7.0,1.0,-100.00,West,281,5.0,11.0,76,0.00,,,0.00,0.000000,,2013-01-14 01:53:00,
2013-01-13 20:01:00,7.0,1.0,-100.00,West,260,6.0,13.0,77,0.00,,,0.00,0.000000,,2013-01-14 02:01:00,
2013-01-13 20:33:00,7.0,1.0,-100.00,West,260,6.0,13.0,77,0.00,,,0.00,0.000000,,2013-01-14 02:33:00,
2013-01-13 20:43:00,7.0,1.0,-100.00,West,260,6.0,13.0,77,0.00,,,0.00,0.000000,,2013-01-14 02:43:00,
2013-01-13 20:53:00,7.0,1.0,-100.00,West,260,6.0,13.0,77,0.00,,,0.00,0.000000,,2013-01-14 02:53:00,
2013-01-13 21:01:00,7.0,1.0,-100.00,West,260,7.0,12.0,76,0.00,,,0.00,0.000000,,2013-01-14 03:01:00,
2013-01-13 21:33:00,7.0,1.0,-100.00,West,260,7.0,12.0,76,0.00,,,0.00,0.000000,,2013-01-14 03:33:00,
2013-01-13 21:43:00,7.0,1.0,-100.00,West,260,7.0,12.0,76,0.00,,,0.00,0.000000,,2013-01-14 03:43:00,
2013-01-13 21:53:00,7.0,1.0,-100.00,West,260,7.0,12.0,76,0.00,,,0.00,0.000000,,2013-01-14 03:53:00,
2013-01-13 22:01:00,7.0,1.0,-100.00,West,268,6.0,12.0,77,0.00,,,0.00,0.000000,,2013-01-14 04:01:00,
2013-01-13 22:32:00,7.0,1.0,-100.00,West,268,6.0,12.0,77,0.00,,,0.00,0.000000,,2013-01-14 04:32:00,
2013-01-13 22:42:00,7.0,1.0,-100.00,West,268,6.0,12.0,77,0.00,,,0.00,0.000000,,2013-01-14 04:42:00,
2013-01-13 22:53:00,7.0,1.0,-100.00,West,268,6.0,12.0,77,0.00,,,0.00,0.000000,,2013-01-14 04:53:00,
2013-01-13 23:01:00,7.0,1.0,-100.00,West,272,7.0,13.0,77,0.00,,,0.00,0.000000,,2013-01-14 05:01:00,
2013-01-13 23:22:00,7.0,1.0,-100.00,West,272,7.0,13.0,77,0.00,,,0.00,0.000000,,2013-01-14 05:22:00,
2013-01-13 23:33:00,7.0,1.0,-100.00,West,272,7.0,13.0,77,0.00,,,0.00,0.000000,,2013-01-14 05:33:00,
2013-01-13 23:43:00,7.0,1.0,-100.00,West,272,7.0,13.0,77,0.00,,,0.00,0.000000,,2013-01-14 05:43:00,
2013-01-13 23:53:00,7.0,1.0,-100.00,West,272,7.0,13.0,77,0.00,,,0.00,0.000000,,2013-01-14 05:53:00,